Weather in Garanhuns

Brazil     8°53′26″S   36°29′47″W
temp.,
°C
wind,
m/s
gust,
m/s
humid.,
%
clouds,
%
prec.,
mm/h
press.,
hPa
HPBL,
m
24 july, sat
sat2400:00+17se3995100 0.1 1020620
03:00+17se3896100 0.2 1018643
06:00+17se4994100 0.1 1019758
09:00+19se6108690 0.3 1020861
12:00+22se797266 0.5 10191116
15:00+22se686760 0.8 10171122
18:00+17se410956 0.1 1019410
21:00+15se39976 0.1 1020301
25 july, sun
sun2500:00+17se3994100 0.0 1019600
03:00+17sse499682 0.2 1017594
06:00+17se4995100 0.2 1018659
09:00+21se698241 0.6 1019789
12:00+23se697458 0.6 10181016
15:00+20se688873 1.4 1016727
18:00+18se4999100 0.9 1018636
21:00+18se499884 1.4 1019553
26 july, mon
mon2600:00+18se4998100 0.6 1018662
03:00+17ese389967 0.9 1017427
06:00+17ese389872 0.3 1018465
09:00+20ese588669 0.6 1019686
12:00+23ese677255 0.6 10171044
15:00+23se677049 0.9 10151102
18:00+18ese389950 0.4 1017347
21:00+18e289960 0.5 1019408
27 july, tue
tue2700:00+16ese119988 0.0 101830
03:00+18ese2592100 0.1 1017276
06:00+18ese2593100 0.0 1018271
09:00+20ese358554 0.1 1019571
12:00+25ese456271 0.1 10161251
15:00+23ese447568 0.8 1015855
18:00+19ese379958 0.8 1017338
21:00+18e389961 0.8 1018321
28 july, wed
wed2800:00+18e379893 0.0 1017383
03:00+18e379894 0.1 1016348
06:00+18e369595 0.0 1017344
09:00+22ese457830 0.0 1018698
12:00+26ese445725 0.0 10151208
15:00+23ese557210 0.0 1014607
18:00+19ese38935 0.0 1016257
21:00+17ese269713 0.0 1017159